DW2738 Weather Reports


Display with metric or nautical units.
time (UTC)temp
F
wind
direction
speed
MPH
gust
MPH
rain 1hr
in
rain 24hr
in
rain mn
in
humidity
%
barometer
mb
20260904192711 89 221 2.0 5.0 0.00 0.00 0.00 63 1010.6
20260904192206 89 245 2.0 3.0 0.00 0.00 0.00 64 1010.9
20260904191703 89 250 5.0 5.0 0.00 0.00 0.00 67 1011.0
20260904191159 89 275 2.0 5.0 0.00 0.00 0.00 69 1010.8
20260904190655 87 215 0.0 5.0 0.00 0.00 0.00 69 1011.1
20260904190151 87 255 4.0 5.0 0.00 0.00 0.00 73 1010.8
20260904185647 86 262 4.0 4.0 0.00 0.00 0.00 72 1011.1
20260904185142 87 249 3.0 4.0 0.00 0.00 0.00 71 1011.1
20260904184640 87 265 2.0 4.0 0.00 0.00 0.00 71 1010.9
20260904184136 86 257 4.0 4.0 0.00 0.00 0.00 70 1011.0
20260904183632 88 247 3.0 4.0 0.00 0.00 0.00 70 1011.2
20260904183126 86 267 4.0 4.0 0.00 0.00 0.00 69 1011.2
20260904182621 88 284 3.0 3.0 0.00 0.00 0.00 69 1011.3
20260904182116 88 284 3.0 3.0 0.00 0.00 0.00 69 1011.3
20260904181612 89 255 2.0 4.0 0.00 0.00 0.00 66 1011.2
20260904181112 88 126 3.0 4.0 0.00 0.00 0.00 66 1011.1
20260904180607 87 270 3.0 4.0 0.00 0.00 0.00 66 1011.1
20260904175602 88 270 2.0 3.0 0.00 0.00 0.00 67 1011.0
20260904175100 88 204 0.0 3.0 0.00 0.00 0.00 65 1010.9
20260904174555 88 260 4.0 4.0 0.00 0.00 0.00 68 1011.1
20260904174052 88 247 3.0 6.0 0.00 0.00 0.00 67 1011.0
20260904173551 88 261 5.0 6.0 0.00 0.00 0.00 72 1011.4
20260904173047 88 244 4.0 5.0 0.00 0.00 0.00 68 1011.1
20260904172543 87 265 4.0 5.0 0.00 0.00 0.00 71 1011.1
20260904172042 88 270 3.0 5.0 0.00 0.00 0.00 71 1011.5
20260904171537 87 226 4.0 4.0 0.00 0.00 0.00 69 1011.2
20260904171033 89 302 3.0 4.0 0.00 0.00 0.00 72 1011.3
20260904170528 88 264 3.0 5.0 0.00 0.00 0.00 68 1011.3
20260904170025 88 300 2.0 3.0 0.00 0.00 0.00 68 1011.4
20260904165523 86 256 3.0 4.0 0.00 0.00 0.00 68 1011.3
20260904165022 87 304 3.0 4.0 0.00 0.00 0.00 69 1011.3
20260904164518 87 265 2.0 2.0 0.00 0.00 0.00 73 1011.4
20260904164014 87 270 1.0 4.0 0.00 0.00 0.00 72 1011.2
20260904163513 87 282 3.0 4.0 0.00 0.00 0.00 72 1011.3
20260904163009 88 274 2.0 4.0 0.00 0.00 0.00 72 1011.1
20260904162503 88 251 4.0 4.0 0.00 0.00 0.00 68 1011.4
20260904161958 88 270 3.0 3.0 0.00 0.00 0.00 70 1011.3
20260904161453 88 264 3.0 5.0 0.00 0.00 0.00 72 1011.3
20260904160949 87 270 2.0 5.0 0.00 0.00 0.00 73 1011.6
20260904160443 86 267 3.0 5.0 0.00 0.00 0.00 75 1011.7
20260904155938 86 264 3.0 4.0 0.00 0.00 0.00 75 1011.7
20260904155433 87 317 4.0 4.0 0.00 0.00 0.00 73 1011.8
20260904154931 87 248 3.0 4.0 0.00 0.00 0.00 72 1011.8
20260904154427 87 270 2.0 5.0 0.00 0.00 0.00 76 1011.6
20260904153921 86 265 4.0 5.0 0.00 0.00 0.00 75 1011.5
20260904153417 86 257 1.0 3.0 0.00 0.00 0.00 75 1011.8
20260904152913 85 229 2.0 4.0 0.00 0.00 0.00 77 1011.7
20260904152408 85 251 3.0 5.0 0.00 0.00 0.00 78 1011.7
20260904151907 84 267 4.0 6.0 0.00 0.00 0.00 75 1011.6
20260904151402 84 248 4.0 5.0 0.00 0.00 0.00 77 1011.8
20260904150858 84 253 4.0 5.0 0.00 0.00 0.00 78 1011.8
20260904150352 84 264 3.0 4.0 0.00 0.00 0.00 79 1011.8
20260904145850 84 188 0.0 5.0 0.00 0.00 0.00 75 1011.7
20260904145347 84 270 3.0 4.0 0.00 0.00 0.00 80 1011.7
20260904144842 84 266 5.0 5.0 0.00 0.00 0.00 80 1011.9
20260904144338 83 270 4.0 5.0 0.00 0.00 0.00 79 1011.7
20260904143833 83 191 3.0 5.0 0.00 0.00 0.00 80 1011.6
20260904143330 83 264 3.0 5.0 0.00 0.00 0.00 81 1011.6
20260904142826 83 266 3.0 5.0 0.00 0.00 0.00 81 1011.7
20260904142322 83 326 4.0 4.0 0.00 0.00 0.00 81 1011.6
20260904141816 83 270 3.0 4.0 0.00 0.00 0.00 82 1011.7
20260904141311 82 243 1.0 4.0 0.00 0.00 0.00 81 1011.6
20260904140807 82 262 5.0 5.0 0.00 0.00 0.00 82 1011.7
20260904140302 82 270 0.0 5.0 0.00 0.00 0.00 83 1011.8
20260904135801 81 253 2.0 4.0 0.00 0.00 0.00 83 1011.9
20260904135256 80 261 2.0 4.0 0.00 0.00 0.00 85 1011.7
20260904134752 80 270 4.0 5.0 0.00 0.00 0.00 84 1011.9
20260904134252 80 260 5.0 5.0 0.00 0.00 0.00 85 1011.7
20260904133747 80 255 3.0 5.0 0.00 0.00 0.00 85 1011.7
20260904133243 80 253 4.0 5.0 0.00 0.00 0.00 86 1011.6
20260904132742 80 270 2.0 4.0 0.00 0.00 0.00 87 1011.7
20260904132238 79 280 2.0 4.0 0.00 0.00 0.00 87 1011.4
20260904131737 79 270 1.0 5.0 0.00 0.00 0.00 86 1011.5
20260904131233 79 233 2.0 4.0 0.00 0.00 0.00 87 1011.6
20260904130732 79 240 2.0 4.0 0.00 0.00 0.00 86 1011.7
20260904130232 79 213 0.0 5.0 0.00 0.00 0.00 86 1011.8
20260904125728 79 259 2.0 5.0 0.00 0.00 0.00 87 1011.6
20260904125224 79 259 3.0 4.0 0.00 0.00 0.00 87 1011.8
20260904124723 80 285 2.0 3.0 0.00 0.00 0.00 86 1011.7
20260904124220 79 299 3.0 4.0 0.00 0.00 0.00 88 1011.8
20260904123714 79 266 2.0 5.0 0.00 0.00 0.00 88 1011.8
20260904123210 78 270 2.0 4.0 0.00 0.00 0.00 90 1011.8
20260904122710 77 259 3.0 4.0 0.00 0.00 0.00 93 1011.8
20260904122205 75 270 1.0 4.0 0.00 0.00 0.00 94 1011.8
20260904121700 75 261 2.0 4.0 0.00 0.00 0.00 97 1011.8
20260904121155 75 260 3.0 3.0 0.00 0.00 0.00 98 1011.6
20260904120652 74 225 3.0 5.0 0.00 0.00 0.00 99 1011.7
20260904120148 73 257 3.0 3.0 0.00 0.00 0.00 99 1011.6
20260904115643 73 127 6.0 6.0 0.00 0.00 0.00 99 1011.7
20260904115137 73 248 2.0 2.0 0.00 0.00 0.00 99 1011.7
20260904114632 73 157 0.0 3.0 0.00 0.00 0.00 99 1011.8
20260904114131 72 261 3.0 3.0 0.00 0.00 0.00 99 1011.9
20260904113626 73 264 1.0 2.0 0.00 0.00 0.00 99 1011.7
20260904113125 73 264 2.0 2.0 0.00 0.00 0.00 99 1011.5
20260904112621 73 280 2.0 3.0 0.00 0.00 0.00 99 1011.7
20260904112117 72 258 2.0 2.0 0.00 0.00 0.00 99 1011.4
20260904111612 72 258 2.0 2.0 0.00 0.00 0.00 99 1011.4
20260904111108 73 270 2.0 3.0 0.00 0.00 0.00 99 1011.3
20260904110602 73 270 2.0 3.0 0.00 0.00 0.00 99 1011.4
20260904110057 73 250 2.0 3.0 0.00 0.00 0.00 99 1011.2
20260904105557 73 255 2.0 2.0 0.00 0.00 0.00 99 1011.2
20260904105052 73 255 2.0 2.0 0.00 0.00 0.00 99 1011.2
20260904104547 73 255 2.0 2.0 0.00 0.00 0.00 99 1011.3
20260904104043 73 255 2.0 2.0 0.00 0.00 0.00 99 1011.1
20260904103539 73 264 2.0 2.0 0.00 0.00 0.00 99 1011.2
20260904103035 73 261 2.0 2.0 0.00 0.00 0.00 99 1011.0
20260904102530 73 261 2.0 2.0 0.00 0.00 0.00 99 1011.0
20260904102025 73 261 2.0 2.0 0.00 0.00 0.00 99 1010.9
20260904101522 74 253 3.0 4.0 0.00 0.00 0.00 99 1010.9
20260904101017 74 270 2.0 3.0 0.00 0.00 0.00 99 1011.0
20260904100513 74 236 3.0 3.0 0.00 0.00 0.00 99 1010.9
20260904100008 73 262 1.0 2.0 0.00 0.00 0.00 99 1011.2
20260904095502 74 261 2.0 3.0 0.00 0.00 0.00 99 1010.9
20260904094957 74 243 2.0 2.0 0.00 0.00 0.00 99 1011.0
20260904094452 74 264 2.0 2.0 0.00 0.00 0.00 99 1010.9
20260904093948 74 253 2.0 2.0 0.00 0.00 0.00 99 1011.0
20260904093444 74 243 1.0 2.0 0.00 0.00 0.00 99 1010.8
20260904092939 74 254 2.0 2.0 0.00 0.00 0.00 99 1010.9
20260904092435 74 264 1.0 2.0 0.00 0.00 0.00 99 1011.1
20260904091931 74 250 2.0 2.0 0.00 0.00 0.00 99 1010.9
20260904091427 74 264 2.0 2.0 0.00 0.00 0.00 99 1010.9
20260904090926 74 264 2.0 2.0 0.00 0.00 0.00 99 1010.8
20260904090423 75 265 2.0 3.0 0.00 0.00 0.00 99 1011.0
20260904085917 75 265 2.0 3.0 0.00 0.00 0.00 99 1010.8
20260904085413 75 259 2.0 3.0 0.00 0.00 0.00 99 1010.9
20260904084907 75 260 2.0 3.0 0.00 0.00 0.00 99 1010.8
20260904084403 75 240 3.0 4.0 0.00 0.00 0.00 99 1010.9
20260904083853 75 270 1.0 3.0 0.00 0.00 0.00 99 1011.2
20260904083349 75 236 3.0 3.0 0.00 0.00 0.00 99 1011.0
20260904082845 75 265 2.0 5.0 0.00 0.00 0.00 99 1011.3
20260904082339 75 246 2.0 5.0 0.00 0.00 0.00 99 1011.5
20260904081834 75 251 0.0 3.0 0.00 0.00 0.00 99 1011.3
20260904081330 75 254 3.0 3.0 0.00 0.00 0.00 99 1011.4
20260904080826 75 243 2.0 5.0 0.00 0.00 0.00 99 1011.6
20260904080321 75 234 3.0 6.0 0.00 0.00 0.00 99 1011.5
20260904075818 76 262 3.0 5.0 0.00 0.00 0.00 99 1011.3
20260904075312 75 248 2.0 3.0 0.00 0.00 0.00 99 1011.4
20260904074811 75 236 2.0 5.0 0.00 0.00 0.00 99 1011.3
20260904074306 75 229 5.0 6.0 0.00 0.00 0.00 99 1011.2
20260904073802 75 314 4.0 4.0 0.00 0.00 0.00 99 1011.2
20260904073257 75 246 3.0 3.0 0.00 0.00 0.00 99 1011.1
20260904072754 75 241 3.0 5.0 0.00 0.00 0.00 99 1011.1
20260904072252 75 247 3.0 4.0 0.00 0.00 0.00 99 1011.0
20260904071749 75 261 2.0 5.0 0.00 0.00 0.00 99 1011.1
20260904071249 74 247 3.0 3.0 0.00 0.00 0.00 99 1011.1
20260904070743 74 263 1.0 3.0 0.00 0.00 0.00 99 1011.2
20260904070242 74 238 3.0 3.0 0.00 0.00 0.00 99 1011.1
20260904065737 74 246 0.0 3.0 0.00 0.00 0.00 99 1010.8
20260904065234 74 225 3.0 3.0 0.00 0.00 0.00 99 1010.9
20260904064733 74 239 2.0 3.0 0.00 0.00 0.00 99 1010.6
20260904064229 74 225 3.0 3.0 0.00 0.00 0.00 99 1010.6
20260904063725 74 257 2.0 2.0 0.00 0.00 0.00 99 1010.7
20260904063221 74 262 2.0 2.0 0.00 0.00 0.00 99 1011.0
20260904062717 74 261 2.0 2.0 0.00 0.00 0.00 99 1010.9
20260904062212 74 233 2.0 3.0 0.00 0.00 0.00 99 1010.9
20260904061708 73 251 2.0 2.0 0.00 0.00 0.00 99 1011.1
20260904061204 73 232 3.0 3.0 0.00 0.00 0.00 99 1010.9
20260904060700 73 246 2.0 2.0 0.00 0.00 0.00 99 1011.1
20260904060156 73 260 2.0 2.0 0.00 0.00 0.00 99 1011.2
20260904055650 73 260 2.0 2.0 0.00 0.00 0.00 99 1011.0
20260904055146 74 290 2.0 2.0 0.00 0.00 0.00 99 1011.2
20260904054642 73 265 2.0 2.0 0.00 0.00 0.00 99 1011.2
20260904054138 73 247 2.0 3.0 0.00 0.00 0.00 99 1011.3
20260904053638 73 261 2.0 2.0 0.00 0.00 0.00 99 1011.4
20260904053132 73 243 3.0 3.0 0.00 0.00 0.00 99 1011.7
20260904052629 73 240 2.0 3.0 0.00 0.00 0.00 99 1011.6
20260904052125 73 263 3.0 3.0 0.00 0.00 0.00 99 1011.8
20260904051621 73 243 2.0 2.0 0.00 0.00 0.00 99 1012.1
20260904051115 73 264 2.0 3.0 0.00 0.00 0.00 99 1012.0
20260904050610 73 270 1.0 2.0 0.00 0.00 0.00 99 1011.7
20260904050107 73 262 1.0 2.0 0.00 0.00 0.00 99 1011.7
20260904045601 73 259 2.0 2.0 0.00 0.00 0.00 99 1011.7
20260904045056 73 254 2.0 2.0 0.00 0.00 0.00 99 1011.6
20260904044551 73 254 2.0 2.0 0.00 0.00 0.00 99 1011.4
20260904044048 73 257 1.0 1.0 0.00 0.00 0.00 99 1011.5
20260904043544 73 257 1.0 2.0 0.00 0.00 0.00 99 1011.6
20260904043040 73 276 1.0 2.0 0.00 0.00 0.00 99 1012.0
20260904042536 73 258 2.0 2.0 0.00 0.00 0.00 99 1012.0
20260904042031 73 251 2.0 2.0 0.00 0.00 0.00 99 1012.1
20260904041527 73 248 2.0 2.0 0.00 0.00 0.00 99 1012.0
20260904041023 73 251 1.0 2.0 0.00 0.00 0.00 99 1012.1
20260904040522 73 270 0.0 2.0 0.00 0.00 0.00 99 1012.4
20260904040019 73 253 2.0 2.0 0.00 0.22 0.22 99 1012.3
20260904035514 73 258 2.0 2.0 0.00 0.22 0.22 99 1012.2
20260904035013 73 263 1.0 2.0 0.00 0.22 0.22 99 1012.5
20260904034508 73 261 2.0 2.0 0.00 0.22 0.22 99 1012.5
20260904034004 73 270 2.0 2.0 0.00 0.22 0.22 99 1012.6
20260904033500 73 258 2.0 2.0 0.00 0.22 0.22 99 1012.7
20260904032956 74 261 2.0 2.0 0.00 0.22 0.22 99 1012.8
20260904032451 73 255 2.0 2.0 0.00 0.22 0.22 99 1012.8
20260904031950 73 257 2.0 2.0 0.00 0.22 0.22 99 1012.8
20260904031445 73 270 2.0 2.0 0.00 0.22 0.22 99 1012.5
20260904030941 73 259 2.0 2.0 0.00 0.22 0.22 99 1012.8
20260904030437 73 264 2.0 2.0 0.00 0.22 0.22 99 1012.6
20260904025931 73 266 2.0 2.0 0.00 0.22 0.22 99 1012.8
20260904025428 74 276 2.0 2.0 0.00 0.22 0.22 99 1012.5
20260904024922 74 270 2.0 2.0 0.00 0.22 0.22 99 1012.4
20260904024417 74 245 2.0 2.0 0.00 0.22 0.22 99 1012.3
20260904023913 74 243 2.0 2.0 0.00 0.22 0.22 99 1012.5
20260904023410 74 258 2.0 2.0 0.00 0.22 0.22 99 1012.5
20260904022908 74 253 2.0 2.0 0.00 0.22 0.22 99 1012.6
20260904022405 74 270 2.0 2.0 0.00 0.22 0.22 99 1012.8
20260904021901 74 248 2.0 2.0 0.00 0.22 0.22 99 1012.7
20260904021357 74 265 2.0 2.0 0.00 0.22 0.22 99 1012.8
20260904020852 74 239 2.0 3.0 0.00 0.22 0.22 99 1012.7
20260904020347 74 270 2.0 2.0 0.00 0.22 0.22 99 1012.7
20260904015845 74 239 2.0 2.0 0.00 0.22 0.22 99 1013.0
20260904015341 74 241 2.0 2.0 0.00 0.22 0.22 99 1013.1
20260904014840 74 258 2.0 2.0 0.00 0.22 0.22 99 1012.9
20260904014335 74 259 2.0 2.0 0.00 0.22 0.22 99 1013.3
20260904013831 75 248 2.0 2.0 0.00 0.22 0.22 99 1013.2
20260904013327 75 250 2.0 2.0 0.00 0.22 0.22 99 1013.3
20260904012823 75 282 2.0 2.0 0.00 0.22 0.22 99 1013.5
20260904012323 75 276 1.0 3.0 0.00 0.22 0.22 99 1013.4
20260904011822 75 262 1.0 2.0 0.00 0.22 0.22 99 1013.1
20260904011317 75 239 2.0 2.0 0.00 0.22 0.22 99 1013.2
20260904010811 75 235 3.0 3.0 0.00 0.22 0.22 99 1013.2
20260904010309 75 246 2.0 2.0 0.00 0.22 0.22 99 1013.4
20260904005803 75 243 2.0 2.0 0.00 0.22 0.22 99 1013.2
20260904005259 75 254 1.0 2.0 0.00 0.22 0.22 99 1013.5
20260904004753 76 258 2.0 2.0 0.00 0.22 0.22 99 1013.4
20260904004249 76 248 2.0 2.0 0.00 0.22 0.22 99 1013.5
20260904003744 76 259 2.0 2.0 0.00 0.22 0.22 99 1013.3
20260904003240 76 250 2.0 2.0 0.00 0.22 0.22 99 1013.1
20260904002735 76 265 2.0 2.0 0.00 0.22 0.22 99 1013.5
20260904002233 76 270 2.0 2.0 0.00 0.22 0.22 99 1013.0
20260904001732 76 259 2.0 2.0 0.00 0.22 0.22 99 1012.9
20260904001226 77 247 2.0 2.0 0.00 0.22 0.22 99 1012.9
20260904000721 77 247 2.0 2.0 0.00 0.22 0.22 99 1012.7
20260904000218 77 245 2.0 2.0 0.00 0.22 0.22 98 1012.5
20260903235715 77 251 1.0 2.0 0.00 0.22 0.22 98 1012.4
20260903235212 77 262 1.0 2.0 0.00 0.22 0.22 98 1012.3
20260903234706 77 259 2.0 2.0 0.00 0.22 0.22 98 1012.5
20260903234203 78 257 1.0 2.0 0.00 0.22 0.22 98 1012.5
20260903233658 78 240 2.0 2.0 0.00 0.22 0.22 97 1012.6
20260903233154 78 255 1.0 2.0 0.00 0.22 0.22 97 1012.4
20260903232647 78 257 1.0 2.0 0.00 0.22 0.22 97 1012.5
20260903232144 78 259 2.0 2.0 0.00 0.22 0.22 96 1012.5
20260903231642 78 248 2.0 2.0 0.00 0.22 0.22 96 1012.4
20260903231137 79 257 2.0 2.0 0.00 0.22 0.22 96 1012.3
20260903230633 79 245 2.0 3.0 0.00 0.22 0.22 95 1012.2
20260903230132 80 248 2.0 3.0 0.00 0.22 0.22 95 1012.1
20260903225629 80 257 2.0 3.0 0.00 0.22 0.22 95 1012.1
20260903225125 80 251 2.0 3.0 0.00 0.22 0.22 94 1011.9
20260903224621 80 260 2.0 2.0 0.00 0.22 0.22 94 1012.0
20260903224118 80 279 1.0 2.0 0.00 0.22 0.22 93 1012.0
20260903223613 81 245 2.0 3.0 0.00 0.22 0.22 93 1012.2
20260903223110 81 262 3.0 3.0 0.00 0.22 0.22 93 1012.1
20260903222606 81 270 3.0 3.0 0.00 0.22 0.22 93 1011.9
20260903222104 81 255 3.0 3.0 0.00 0.22 0.22 92 1011.9
20260903221600 82 270 2.0 3.0 0.00 0.22 0.22 91 1012.0
20260903221058 82 266 3.0 3.0 0.00 0.22 0.22 91 1012.0
20260903220557 82 258 3.0 3.0 0.00 0.22 0.22 89 1012.1
20260903220056 82 261 3.0 3.0 0.00 0.22 0.22 89 1012.1
20260903215555 83 266 2.0 3.0 0.00 0.22 0.22 87 1011.8
20260903215050 83 160 1.0 4.0 0.00 0.22 0.22 86 1012.0
20260903214550 83 260 2.0 3.0 0.00 0.22 0.22 87 1011.9
20260903214045 83 257 3.0 5.0 0.00 0.22 0.22 87 1012.0
20260903213540 83 259 2.0 3.0 0.00 0.22 0.22 86 1011.9
20260903213036 83 255 3.0 4.0 0.00 0.22 0.22 84 1012.0
20260903212532 84 270 0.0 3.0 0.00 0.22 0.22 85 1012.0
20260903212027 84 249 1.0 4.0 0.00 0.22 0.22 85 1011.9
20260903211521 84 265 4.0 4.0 0.00 0.22 0.22 85 1012.0
20260903211019 84 264 2.0 4.0 0.00 0.22 0.22 82 1012.1
20260903210518 85 270 2.0 4.0 0.00 0.22 0.22 83 1012.0
20260903210009 85 250 3.0 3.0 0.00 0.22 0.22 82 1012.0
20260903205502 85 276 2.0 5.0 0.00 0.22 0.22 82 1011.9
20260903204956 85 261 2.0 4.0 0.00 0.22 0.22 80 1011.9
20260903204453 86 270 3.0 5.0 0.00 0.22 0.22 81 1011.8
20260903203948 86 222 3.0 4.0 0.00 0.22 0.22 79 1012.1
20260903203443 86 216 4.0 6.0 0.00 0.22 0.22 80 1012.1
20260903202942 86 239 3.0 7.0 0.00 0.22 0.22 78 1012.3
20260903202439 87 245 2.0 4.0 0.00 0.22 0.22 80 1012.0
20260903201933 87 255 4.0 4.0 0.00 0.22 0.22 77 1011.9
20260903201429 88 275 2.0 3.0 0.00 0.22 0.22 78 1012.1
20260903200927 88 239 4.0 5.0 0.00 0.22 0.22 78 1012.1
20260903200422 87 275 4.0 5.0 0.00 0.22 0.22 77 1012.4
20260903195917 88 231 3.0 5.0 0.00 0.22 0.22 77 1012.2
20260903195414 88 206 0.0 5.0 0.00 0.22 0.22 76 1012.5
20260903194908 88 270 2.0 3.0 0.00 0.22 0.22 77 1012.7
20260903194404 88 254 0.0 6.0 0.00 0.22 0.22 75 1012.6
20260903193859 88 236 2.0 4.0 0.00 0.22 0.22 77 1012.7
20260903193355 88 265 0.0 5.0 0.00 0.22 0.22 76 1012.8